Stations météo

réclame
Mon MeteoGroup
Dijon, France (7280): Température de l'air & dewpoint: 25.03.2020 04:00:00 - 31.03.2020 04:00:00 (CEST)Dijon, France (7280): Température de l'air 5cm: 25.03.2020 04:00:00 - 31.03.2020 04:00:00 (CEST)Dijon, France (7280): Température de l'air -20cm & Température de l'air -100cm: 25.03.2020 04:00:00 - 31.03.2020 04:00:00 (CEST)Dijon, France (7280): Vitesse du vent & gusts: 25.03.2020 04:00:00 - 31.03.2020 04:00:00 (CEST)Dijon, France (7280): Direction du vent: 25.03.2020 04:00:00 - 31.03.2020 04:00:00 (CEST)Dijon, France (7280): reduced air pressure: 25.03.2020 04:00:00 - 31.03.2020 04:00:00 (CEST)Dijon, France (7280): visibility: 25.03.2020 04:00:00 - 31.03.2020 04:00:00 (CEST)Dijon, France (7280): Ensoleillement: 25.03.2020 04:00:00 - 31.03.2020 04:00:00 (CEST)Dijon, France (7280): Quantités de précipitations: 25.03.2020 04:00:00 - 31.03.2020 04:00:00 (CEST)
Date & Time tt [°C] td [°C] tt 5cm [°C] tt -20cm [°C] tt -100cm [°C] ff [km/h] ff [knt] fx [km/h] fx [knt] dd ppp [hPa] vv [km] sd [min] rr [mm]
31.03.2020 04:00:00 - - - - - - - - - - - - - -
31.03.2020 03:00:00 -0,3 -9,5 -1,0 8,7 9,9 13 7 20 11 N 1023,7 60 0 0,0
31.03.2020 02:00:00 0,8 -9,8 0,1 8,7 9,9 14 7 22 12 N 1023,9 60 0 0,0
31.03.2020 01:00:00 1,8 -9,8 0,8 8,8 9,8 16 9 28 15 N 1023,7 60 0 0,0
31.03.2020 00:00:00 2,4 -9,5 0,8 8,8 9,8 18 10 24 13 N 1023,8 60 0 0,0
30.03.2020 23:00:00 2,5 -8,8 1,5 8,8 9,9 13 7 19 11 N 1023,9 60 0 0,0
30.03.2020 22:00:00 3,0 -8,7 1,8 8,8 9,9 13 7 18 10 NNE 1023,7 60 0 0,0
30.03.2020 21:00:00 5,0 -4,6 3,8 8,8 9,9 13 7 24 13 NE 1023,0 60 0 0,0
30.03.2020 20:00:00 6,2 -6,4 5,2 8,7 9,9 18 10 42 23 NNE 1022,1 60 50 0,0
30.03.2020 19:00:00 8,0 -6,2 7,7 8,6 9,8 30 16 45 24 NE 1021,4 52 60 0,0
30.03.2020 18:00:00 8,7 -4,9 9,6 8,6 9,9 29 16 49 26 NE 1021,3 38 60 0,0
30.03.2020 17:00:00 8,6 -4,6 10,4 8,5 9,9 29 16 50 27 NE 1021,4 20 60 0,0
30.03.2020 16:00:00 8,8 -3,4 10,9 8,5 9,9 32 17 51 28 NE 1021,8 33 60 0,0
30.03.2020 15:00:00 7,8 -2,8 9,8 8,5 9,8 32 17 49 26 NE 1022,4 35 57 0,0
30.03.2020 14:00:00 7,1 -2,4 8,2 8,5 9,9 33 18 53 28 NE 1022,8 47 60 0,0
30.03.2020 13:00:00 5,5 -2,4 5,2 8,6 9,9 32 17 51 28 NE 1023,2 57 3 0,0
30.03.2020 12:00:00 4,0 -2,9 4,1 8,7 9,9 35 19 55 30 NNE 1023,5 59 0 0,0
30.03.2020 11:00:00 3,3 -2,9 3,0 8,7 9,8 33 18 56 30 NNE 1023,6 60 0 0,0
30.03.2020 10:00:00 2,9 -2,8 2,0 8,8 9,9 34 18 50 27 NNE 1023,5 54 0 0,0
30.03.2020 09:00:00 2,5 -2,6 1,2 8,9 9,8 33 18 57 31 NNE 1023,3 58 0 0,0
30.03.2020 08:00:00 2,1 -2,2 0,7 9,0 9,9 31 17 45 25 NNE 1023,0 60 0 0,0
30.03.2020 07:00:00 2,1 -1,7 0,8 9,0 9,8 29 15 47 25 NNE 1022,8 60 0 0,0
30.03.2020 06:00:00 2,3 -1,1 1,0 9,1 9,9 31 17 55 30 NNE 1022,5 60 0 0,0
30.03.2020 05:00:00 2,7 -0,4 1,5 9,1 9,8 31 17 54 29 NNE 1022,8 60 0 0,0
30.03.2020 04:00:00 2,9 0,6 1,9 9,2 9,8 32 18 51 28 NNE 1022,6 60 0 0,0
30.03.2020 03:00:00 3,1 1,6 2,3 9,3 9,8 30 16 44 24 NNE 1023,1 60 0 0,0
30.03.2020 02:00:00 2,6 1,7 2,3 9,4 9,8 27 15 44 24 N 1023,6 38 0 0,0
30.03.2020 01:00:00 2,7 1,8 2,6 9,4 9,8 31 17 46 25 N 1023,7 25 0 0,2
30.03.2020 00:00:00 3,1 1,6 2,7 9,4 9,8 27 15 48 26 NNE 1024,0 13 0 0,2
29.03.2020 23:00:00 3,8 1,7 3,5 9,5 9,8 16 8 24 13 NE 1023,9 32 0 0,0
29.03.2020 22:00:00 3,8 1,8 3,4 9,5 9,8 11 6 22 12 NE 1023,9 32 0 0,0
29.03.2020 21:00:00 4,0 2,7 3,9 9,5 9,8 14 8 21 11 NE 1023,7 19 0 0,0
29.03.2020 20:00:00 4,3 3,6 4,7 9,5 9,8 10 5 16 9 ENE 1023,2 16 0 0,0
29.03.2020 19:00:00 4,8 3,5 5,5 9,5 9,8 9 5 16 9 E 1022,9 17 0 0,0
29.03.2020 18:00:00 5,7 3,0 6,3 9,6 9,8 13 7 21 11 ENE 1022,5 19 0 0,0
29.03.2020 17:00:00 5,0 3,5 5,5 9,6 9,8 11 6 20 11 NE 1022,6 17 2 0,2
29.03.2020 16:00:00 4,1 2,8 4,8 9,7 9,8 12 7 29 16 NNE 1023,0 16 0 0,2
29.03.2020 15:00:00 3,4 2,7 3,4 9,7 9,8 22 12 47 26 NNE 1023,1 19 0 1,0
29.03.2020 14:00:00 3,2 2,5 3,8 9,7 9,8 23 12 48 26 N 1023,1 11 0 0,2
29.03.2020 13:00:00 5,1 -0,1 5,8 9,8 9,8 27 15 38 20 N 1022,3 36 0 0,0
29.03.2020 12:00:00 4,3 1,0 5,6 9,8 9,8 29 16 50 27 N 1022,0 20 0 0,0
29.03.2020 11:00:00 4,7 0,3 6,7 9,9 9,8 28 15 51 28 N 1022,0 18 0 0,0
29.03.2020 10:00:00 6,3 1,0 6,9 9,9 9,8 28 15 50 27 N 1021,3 20 9 0,0
29.03.2020 09:00:00 6,2 1,5 5,1 10,0 9,8 27 14 45 24 N 1020,7 16 11 0,0
29.03.2020 08:00:00 5,4 1,5 5,0 10,0 9,8 22 12 36 19 N 1020,4 16 0 0,0
29.03.2020 07:00:00 5,8 0,3 5,3 10,1 9,8 22 12 31 17 N 1019,7 15 0 0,0
29.03.2020 06:00:00 6,6 -0,4 5,3 10,1 9,8 19 10 26 14 N 1019,2 15 0 0,0
29.03.2020 05:00:00 6,7 -0,8 5,9 10,1 9,8 15 8 25 14 N 1018,9 17 0 0,0
29.03.2020 04:00:00 8,5 -0,5 7,5 10,2 9,8 15 8 37 20 N 1018,6 18 0 0,0
29.03.2020 03:00:00 10,5 0,2 9,9 10,2 9,9 25 14 41 22 N 1018,3 17 0 0,0
29.03.2020 02:00:00 12,3 2,4 11,6 10,2 9,8 27 14 36 19 N 1017,9 18 0 0,0
29.03.2020 01:00:00 13,8 3,0 11,7 10,1 9,8 20 11 29 16 N 1017,1 36 0 0,0
29.03.2020 00:00:00 13,1 3,7 11,6 10,1 9,8 14 7 22 12 NNW 1017,0 19 0 0,0
28.03.2020 23:00:00 13,0 4,2 9,6 10,1 9,8 14 8 21 11 NNW 1017,1 20 0 0,0
28.03.2020 22:00:00 10,9 3,7 9,5 10,0 9,8 10 6 14 8 NNW 1017,4 19 0 0,0
28.03.2020 21:00:00 13,9 1,8 11,0 9,9 9,8 11 6 18 10 N 1016,7 34 0 0,0
28.03.2020 20:00:00 15,4 2,9 12,9 9,7 9,8 14 7 21 12 N 1016,1 19 0 0,0
28.03.2020 19:00:00 17,1 3,0 15,4 9,6 9,8 14 8 26 14 N 1015,4 18 50 0,0
28.03.2020 18:00:00 18,1 3,5 17,1 9,4 9,8 16 8 26 14 NNE 1015,1 19 55 0,0
28.03.2020 17:00:00 18,0 3,8 17,8 9,1 9,8 9 5 20 11 NNE 1015,3 20 54 0,0
28.03.2020 16:00:00 18,2 3,3 19,9 9,0 9,8 7 4 21 11 NNE 1015,5 12 60 0,0
28.03.2020 15:00:00 17,9 3,4 20,6 8,8 9,8 10 5 18 10 N 1016,2 19 60 0,0
28.03.2020 14:00:00 16,6 3,6 19,2 8,7 9,8 9 5 17 9 N 1016,9 20 60 0,0
28.03.2020 13:00:00 15,1 3,2 17,2 8,7 9,8 9 5 16 9 NNE 1017,3 13 60 0,0
28.03.2020 12:00:00 13,9 3,9 12,1 8,7 9,8 0 0 6 3 N 1018,0 16 60 0,0
28.03.2020 11:00:00 11,1 3,4 9,2 8,8 9,8 0 0 6 3 N 1018,5 18 60 0,0
28.03.2020 10:00:00 7,5 3,7 5,8 8,9 9,9 4 2 9 5 SE 1018,9 16 60 0,0
28.03.2020 09:00:00 5,9 2,7 1,0 8,9 9,9 4 2 6 4 N 1018,7 14 53 0,0
28.03.2020 08:00:00 2,3 0,4 0,6 9,0 9,9 5 3 11 6 NW 1018,8 15 0 0,0
28.03.2020 07:00:00 1,9 0,6 0,8 9,1 9,8 8 4 10 5 NNW 1018,6 13 0 0,0
28.03.2020 06:00:00 3,3 0,5 1,9 9,2 9,9 6 3 14 7 N 1018,1 14 0 0,0
28.03.2020 05:00:00 3,2 1,1 1,3 9,2 9,9 11 6 14 7 NW 1017,8 16 0 0,0
28.03.2020 04:00:00 3,8 0,7 1,8 9,3 9,9 6 3 11 6 NW 1017,6 17 0 0,0
28.03.2020 03:00:00 4,5 1,2 2,4 9,4 9,9 10 5 14 7 NW 1017,7 18 0 0,0
28.03.2020 02:00:00 4,5 1,0 2,5 9,4 9,8 9 5 12 6 NW 1017,7 19 0 0,0
28.03.2020 01:00:00 5,2 1,3 2,9 9,4 9,9 8 5 11 6 NW 1017,7 19 0 0,0
28.03.2020 00:00:00 6,1 1,4 3,5 9,5 9,9 6 4 11 6 NW 1017,5 16 0 0,0
27.03.2020 23:00:00 6,3 1,0 3,5 9,4 9,9 7 4 10 5 NW 1017,3 16 0 0,0
27.03.2020 22:00:00 6,7 1,0 4,1 9,3 9,9 9 5 10 5 NNW 1016,8 18 0 0,0
27.03.2020 21:00:00 8,2 0,7 4,6 9,2 9,9 4 2 6 4 NE 1016,6 26 0 0,0
27.03.2020 20:00:00 10,7 0,7 8,7 9,1 9,9 6 3 13 7 NE 1015,6 34 29 0,0
27.03.2020 19:00:00 11,4 2,1 11,0 9,0 9,9 10 5 15 8 E 1015,1 34 52 0,0
27.03.2020 18:00:00 13,1 0,8 13,9 8,8 9,9 5 3 15 8 NE 1014,6 20 60 0,0
27.03.2020 17:00:00 13,3 0,3 15,0 8,6 9,9 11 6 21 12 ENE 1014,7 20 60 0,0
27.03.2020 16:00:00 13,1 0,8 16,0 8,4 9,9 11 6 21 11 ENE 1014,6 30 60 0,0
27.03.2020 15:00:00 12,3 -0,6 16,6 8,3 9,9 13 7 22 12 ENE 1014,8 18 60 0,0
27.03.2020 14:00:00 11,4 -0,4 15,5 8,2 9,9 9 5 18 10 NNE 1015,1 35 60 0,0
27.03.2020 13:00:00 10,0 -0,8 13,9 8,2 9,9 9 5 19 11 NNE 1015,5 18 60 0,0
27.03.2020 12:00:00 8,9 -0,7 10,0 8,2 9,9 4 2 15 8 NNW 1016,1 19 60 0,0
27.03.2020 11:00:00 7,2 -1,5 7,0 8,3 9,9 9 5 19 11 NNE 1016,4 35 60 0,0
27.03.2020 10:00:00 5,7 -1,9 3,5 8,4 9,9 16 9 22 12 N 1016,3 19 60 0,0
27.03.2020 09:00:00 3,9 -1,1 -0,2 8,5 9,9 8 4 11 6 NNW 1016,2 19 60 0,0
27.03.2020 08:00:00 1,3 -2,5 -0,8 8,6 9,9 6 3 13 7 NW 1016,3 19 6 0,0
27.03.2020 07:00:00 0,2 -3,0 -0,4 8,7 9,9 7 4 12 6 NW 1016,2 20 0 0,0
27.03.2020 06:00:00 0,5 -3,2 -0,5 8,7 9,9 9 5 11 6 NNW 1016,0 21 0 0,0
27.03.2020 05:00:00 1,0 -2,9 -0,6 8,7 9,9 10 5 13 7 NW 1015,7 26 0 0,0
27.03.2020 04:00:00 1,1 -2,8 0,7 8,8 9,9 10 5 17 9 NNW 1015,7 25 0 0,0
27.03.2020 03:00:00 2,5 -3,0 1,7 8,9 9,9 14 8 20 11 N 1015,4 23 0 0,0
27.03.2020 02:00:00 3,8 -3,3 1,8 8,9 9,9 16 8 20 11 N 1015,4 25 0 0,0
27.03.2020 01:00:00 2,4 -3,7 2,6 8,9 9,9 13 7 16 9 NNW 1016,1 24 0 0,0
27.03.2020 00:00:00 5,1 -3,2 4,5 9,0 9,9 12 7 26 14 N 1015,9 27 0 0,0
26.03.2020 23:00:00 6,4 -3,6 5,4 9,0 10,0 14 8 24 13 N 1016,1 29 0 0,0
26.03.2020 22:00:00 6,9 -3,1 6,0 8,9 10,0 16 9 30 16 N 1016,0 28 0 0,0
26.03.2020 21:00:00 7,9 -3,0 6,6 8,8 9,9 18 10 35 19 NNE 1015,5 31 0 0,0
26.03.2020 20:00:00 8,7 -3,8 7,0 8,7 9,9 12 7 24 13 N 1014,6 31 0 0,0
26.03.2020 19:00:00 9,9 -4,9 9,0 8,6 10,0 20 11 29 16 NE 1014,4 43 35 0,0
26.03.2020 18:00:00 10,5 -3,6 10,8 8,4 9,9 18 10 29 15 NNE 1014,2 20 60 0,0
26.03.2020 17:00:00 10,1 -3,3 12,2 8,3 9,9 18 10 31 17 NE 1014,6 27 60 0,0
26.03.2020 16:00:00 9,7 -2,3 12,6 8,2 10,0 18 10 32 18 NNE 1014,7 17 60 0,0
26.03.2020 15:00:00 9,0 -1,2 13,8 8,1 10,0 16 9 24 13 NNE 1014,9 20 60 0,0
26.03.2020 14:00:00 8,4 -1,2 13,7 8,0 10,0 11 6 22 12 N 1015,2 30 60 0,0
26.03.2020 13:00:00 7,4 -1,3 11,9 8,1 10,0 9 5 17 9 NNE 1015,6 18 60 0,0
26.03.2020 12:00:00 5,7 -1,5 7,9 8,1 10,0 9 5 20 11 NNE 1015,7 20 39 0,0
26.03.2020 11:00:00 3,9 -3,6 6,0 8,2 10,0 7 4 21 11 NE 1015,6 20 19 0,0
26.03.2020 10:00:00 3,0 -5,7 2,0 8,2 10,0 14 7 24 13 NE 1015,4 20 60 0,0
26.03.2020 09:00:00 1,4 -6,2 -0,3 8,4 10,0 15 8 22 12 NNE 1014,9 19 60 0,0
26.03.2020 08:00:00 -0,3 -7,1 -0,8 8,4 10,0 13 7 22 12 N 1014,9 34 2 0,0
26.03.2020 07:00:00 -0,6 -7,0 -0,8 8,5 10,0 16 9 22 12 N 1014,4 34 0 0,0
26.03.2020 06:00:00 0,3 -7,0 -0,2 8,6 10,0 17 9 21 12 N 1014,2 36 0 0,0
26.03.2020 05:00:00 0,6 -7,0 0,1 8,7 10,0 14 8 20 11 N 1014,6 34 0 0,0
26.03.2020 04:00:00 1,0 -7,0 0,8 8,8 10,0 14 8 22 12 N 1014,6 36 0 0,0
26.03.2020 03:00:00 1,8 -6,8 1,3 8,8 10,0 17 9 26 14 N 1014,9 37 0 0,0
26.03.2020 02:00:00 2,5 -6,6 1,6 8,9 10,0 16 9 23 13 N 1015,1 36 0 0,0
26.03.2020 01:00:00 2,8 -6,6 1,9 8,9 10,0 14 8 18 10 N 1015,8 33 0 0,0
26.03.2020 00:00:00 3,8 -6,8 2,7 9,0 10,0 14 8 19 11 N 1016,0 33 0 0,0
25.03.2020 23:00:00 3,5 -6,8 2,9 8,9 10,0 14 8 21 11 NNE 1016,5 35 0 0,0
25.03.2020 22:00:00 5,6 -7,0 3,1 8,9 10,0 14 8 25 14 N 1016,3 36 0 0,0
25.03.2020 21:00:00 5,6 -6,0 3,2 8,9 10,0 10 6 29 16 N 1016,0 28 0 0,0
25.03.2020 20:00:00 8,4 -6,6 7,0 8,8 10,0 24 13 41 22 NNE 1015,4 38 42 0,0
25.03.2020 19:00:00 9,9 -7,8 9,1 8,6 10,0 24 13 40 21 NNE 1015,1 58 60 0,0
25.03.2020 18:00:00 10,7 -7,6 11,1 8,5 10,0 24 13 43 23 N 1015,0 20 60 0,0
25.03.2020 17:00:00 11,6 -5,4 12,8 8,4 10,0 21 12 34 19 NNE 1015,6 20 60 0,0
25.03.2020 16:00:00 10,9 -6,9 13,4 8,3 10,0 21 11 35 19 NNE 1016,6 37 60 0,0
25.03.2020 15:00:00 10,1 -7,2 13,4 8,2 10,0 22 12 36 19 NE 1017,8 20 60 0,0
25.03.2020 14:00:00 9,2 -7,1 12,8 8,2 10,0 22 12 35 19 NE 1018,8 20 60 0,0
25.03.2020 13:00:00 8,5 -6,1 12,1 8,2 10,0 22 12 36 19 NNE 1019,7 20 60 0,0
25.03.2020 12:00:00 7,4 -7,9 9,7 8,2 10,0 24 13 38 21 NE 1020,6 20 60 0,0
25.03.2020 11:00:00 6,4 -6,6 6,0 8,4 10,1 23 12 37 20 NE 1021,5 19 60 0,0
25.03.2020 10:00:00 4,5 -7,0 2,0 8,4 10,0 16 9 27 15 NE 1022,4 39 60 0,0
25.03.2020 09:00:00 2,3 -6,6 -1,9 8,6 10,1 13 7 21 11 N 1022,7 38 60 0,0
25.03.2020 08:00:00 -0,3 -6,5 -2,6 8,6 10,1 14 7 18 10 N 1023,1 20 14 0,0
25.03.2020 07:00:00 -1,8 -6,4 -2,4 8,7 10,0 14 7 16 9 N 1023,2 26 0 0,0
25.03.2020 06:00:00 -0,9 -6,1 -2,1 8,8 10,1 11 6 15 8 NW 1023,2 29 0 0,0
25.03.2020 05:00:00 -1,3 -5,7 -1,1 8,9 10,1 9 5 18 10 NNW 1023,4 28 0 0,0
25.03.2020 04:00:00 - - - - - - - - - - - - - -

tt = Température de l'air
td = dewpoint
tt 5cm = Température de l'air 5cm
tt -20cm = Température de l'air -20cm
tt -100cm = Température de l'air -100cm
ff = Vitesse du vent
fx = gusts
dd = Direction du vent
ppp = reduced air pressure
vv = visibility
sd = Ensoleillement
rr = Quantités de précipitations

stations d'obs. à proximité